Regional Weather Roundup
Issued by NWS Midland/Odessa, TX

Home | Current Version | Previous Version | Text Only | Print | Product List | Glossary On
Versions: 1 2 3 4 5 6 7 8 9 10 11 12 13 14 15 16 17 18 19 20 21 22 23 24 25 26 27 28 29 30 31 32 33 34 35 36 37 38 39 40 41 42 43 44 45 46 47 48 49 50
663
ASUS44 KMAF 271110
RWRMAF
MIDLAND AREA WEATHER ROUNDUP
NATIONAL WEATHER SERVICE MIDLAND TX
600 AM CDT MON MAR 27 2017

...IN SOUTHWEST TEXAS AND SOUTHEAST NEW MEXICO...

CITY           SKY/WX    TMP DP  RH WIND       PRES   REMARKS
ALPINE         CLEAR     46  22  40 SW9       30.04S
ANDREWS        FAIR      42  34  73 NE8       29.97S WCI  37
ARTESIA        CLEAR     45  27  49 N13       29.96R WCI  38
BIG SPRING     CLEAR     49  36  60 N8        29.96S
CARLSBAD       CLEAR     48  18  30 N10       29.93R
DRYDEN           N/A     55  25  31 W3        29.88R
FORT STOCKTON  CLEAR     55  24  30 SW10      29.91S
GUAD PASS      CLEAR     51  19  28 W22G28    29.99
HOBBS          CLEAR     43  34  70 N10       29.96R WCI  37
MARFA          CLEAR     36  18  48 N5        30.03S WCI  32
MIDLAND AIRPK  CLEAR     51  37  58 N10G16    29.96R
MIDLAND INTL   CLEAR     51  36  56 N14       29.94R
ODESSA           N/A    N/A N/A N/A MISG      29.96R
PECOS          CLEAR     50  23  34 CALM      29.92S
PRESIDIO       FAIR      60  24  24 N7        29.95S
SEMINOLE       CLEAR     44  35  71 N5        29.97S
SNYDER         CLEAR     47  38  70 N8        29.95S
WINK           CLEAR     47  31  53 NE3       29.93R
$$
...OTHER STATIONS IN TEXAS...

CITY           SKY/WX    TMP DP  RH WIND       PRES   REMARKS
ABILENE        CLEAR     48  43  82 N10       29.92R
AMARILLO       CLEAR     37  35  92 NW13      29.96R WCI  29
AUSTIN         CLOUDY    70  67  90 S8        29.83R
BROWNSVILLE    PTCLDY    71  69  93 SE5       29.77R
CORPUS CHRISTI PTCLDY    71  70  96 SE13      29.78F
DALLAS FTW     CLOUDY    68  58  70 NW13      29.80R
DEL RIO        CLEAR     69  66  90 E7        29.82F
EL PASO        CLEAR     58  19  22 S12       29.96S
HOUSTON INT    CLOUDY    71  68  90 S6        29.85F
LUBBOCK        CLEAR     40  35  83 N8        29.95R WCI  34
SAN ANGELO     CLEAR     44  33  65 CALM      29.90R
SAN ANTONIO    CLOUDY    69  66  90 SE8       29.85S
WACO           CLOUDY    67  66  97 S10       29.80S FOG
WICHITA FALLS  NOT AVBL
$$
...OTHER LOCATIONS IN NEW MEXICO...

CITY           SKY/WX    TMP DP  RH WIND       PRES   REMARKS
ALAMAGORDO     CLOUDY    48  23  37 SE3       29.97R
ALBUQUERQUE    PTCLDY    42  24  49 E7        30.00F WCI  38
CANNON AFB     CLEAR     37  37 100 NW6       29.97F WCI  32
CLOVIS         CLEAR     37  30  75 N8        29.98R WCI  31
HOLLOMAN AFB   CLOUDY    44  18  34 SE3       29.99S
ROSWELL        CLEAR     46  28  49 NW5         N/A
RUIDOSO        CLOUDY    37  16  41 S6        30.05S WCI  33
SANTA FE       CLOUDY    34  26  72 CALM      30.01S
TRUTH OR CONSE CLEAR     50  20  30 CALM      29.98S
TUCUMCARI      CLEAR     38  33  82 W3        29.97F
$$




USA.gov is the U.S. government's official web portal to all federal, state and local government web resources and services.